| time (UTC) | temp F | wind direction | speed MPH | gust MPH | rain 1hr in | rain 24hr in | rain mn in | humidity % | barometer mb |
| 20260901213217 | 94 | 0.0 | 0.0 | 0.00 | 0.23 | 0.00 | 57 | 1012.9 | |
| 20260901212217 | 94 | 0.0 | 0.0 | 0.00 | 0.23 | 0.00 | 56 | 1013.0 | |
| 20260901211217 | 95 | 0.0 | 0.0 | 0.00 | 0.23 | 0.00 | 56 | 1013.1 | |
| 20260901210217 | 95 | 0.0 | 0.0 | 0.00 | 0.23 | 0.00 | 55 | 1013.1 | |
| 20260901205217 | 95 | 0.0 | 0.0 | 0.00 | 0.23 | 0.00 | 58 | 1013.1 | |
| 20260901204217 | 96 | 0.0 | 0.0 | 0.00 | 0.23 | 0.00 | 56 | 1013.2 | |
| 20260901203217 | 96 | 0.0 | 0.0 | 0.00 | 0.23 | 0.00 | 56 | 1013.3 | |
| 20260901202237 | 96 | 0.0 | 0.0 | 0.00 | 0.23 | 0.00 | 56 | 1013.3 | |
| 20260901201217 | 96 | 0.0 | 0.0 | 0.00 | 0.23 | 0.00 | 57 | 1013.3 | |
| 20260901200217 | 96 | 0.0 | 0.0 | 0.00 | 0.23 | 0.00 | 57 | 1013.4 | |
| 20260901195217 | 95 | 0.0 | 0.0 | 0.00 | 0.28 | 0.00 | 57 | 1013.4 | |
| 20260901194216 | 95 | 0.0 | 0.0 | 0.00 | 0.28 | 0.00 | 60 | 1013.4 | |
| 20260901193217 | 95 | 0.0 | 0.0 | 0.00 | 0.28 | 0.00 | 59 | 1013.5 | |
| 20260901192217 | 95 | 0.0 | 0.0 | 0.00 | 0.28 | 0.00 | 60 | 1013.6 | |
| 20260901191217 | 95 | 0.0 | 0.0 | 0.00 | 0.28 | 0.00 | 61 | 1013.7 | |
| 20260901190237 | 95 | 0.0 | 0.0 | 0.00 | 0.28 | 0.00 | 60 | 1013.7 | |
| 20260901185217 | 95 | 0.0 | 0.0 | 0.00 | 0.36 | 0.00 | 61 | 1013.7 | |
| 20260901184217 | 94 | 0.0 | 0.0 | 0.00 | 0.36 | 0.00 | 61 | 1013.7 | |
| 20260901183217 | 94 | 0.0 | 0.0 | 0.00 | 0.36 | 0.00 | 60 | 1013.9 | |
| 20260901182237 | 94 | 0.0 | 0.0 | 0.00 | 0.36 | 0.00 | 60 | 1013.9 | |
| 20260901181217 | 94 | 0.0 | 0.0 | 0.00 | 0.36 | 0.00 | 60 | 1013.8 | |
| 20260901180217 | 94 | 0.0 | 0.0 | 0.00 | 0.36 | 0.00 | 61 | 1013.9 | |
| 20260901175237 | 93 | 0.0 | 0.0 | 0.00 | 0.36 | 0.00 | 62 | 1014.0 | |
| 20260901174217 | 93 | 0.0 | 0.0 | 0.00 | 0.36 | 0.00 | 60 | 1014.1 | |
| 20260901173217 | 93 | 0.0 | 0.0 | 0.00 | 0.36 | 0.00 | 62 | 1014.1 | |
| 20260901172217 | 93 | 0.0 | 0.0 | 0.00 | 0.36 | 0.00 | 62 | 1014.1 | |
| 20260901171217 | 92 | 0.0 | 0.0 | 0.00 | 0.36 | 0.00 | 63 | 1014.2 | |
| 20260901170217 | 92 | 0.0 | 0.0 | 0.00 | 0.36 | 0.00 | 65 | 1014.3 | |
| 20260901165217 | 91 | 0.0 | 0.0 | 0.00 | 0.36 | 0.00 | 68 | 1014.3 | |
| 20260901164237 | 91 | 0.0 | 0.0 | 0.00 | 0.36 | 0.00 | 67 | 1014.4 | |
| 20260901163217 | 90 | 0.0 | 0.0 | 0.00 | 0.36 | 0.00 | 69 | 1014.5 | |
| 20260901162217 | 89 | 0.0 | 0.0 | 0.00 | 0.36 | 0.00 | 70 | 1014.5 | |
| 20260901161237 | 89 | 0.0 | 0.0 | 0.00 | 0.36 | 0.00 | 71 | 1014.5 | |
| 20260901160217 | 89 | 0.0 | 0.0 | 0.00 | 0.36 | 0.00 | 71 | 1014.5 | |
| 20260901155237 | 88 | 0.0 | 0.0 | 0.00 | 0.36 | 0.00 | 72 | 1014.5 | |
| 20260901154217 | 88 | 0.0 | 0.0 | 0.00 | 0.36 | 0.00 | 73 | 1014.3 | |
| 20260901153217 | 87 | 0.0 | 0.0 | 0.00 | 0.36 | 0.00 | 75 | 1014.3 | |
| 20260901152217 | 86 | 0.0 | 0.0 | 0.00 | 0.36 | 0.00 | 77 | 1014.3 | |
| 20260901151216 | 84 | 0.0 | 0.0 | 0.00 | 0.36 | 0.00 | 77 | 1014.3 | |
| 20260901150217 | 84 | 0.0 | 0.0 | 0.00 | 0.36 | 0.00 | 78 | 1014.2 | |
| 20260901145217 | 83 | 0.0 | 0.0 | 0.00 | 0.37 | 0.00 | 78 | 1014.2 | |
| 20260901144217 | 83 | 0.0 | 0.0 | 0.00 | 0.37 | 0.00 | 78 | 1014.2 | |
| 20260901143217 | 83 | 0.0 | 0.0 | 0.00 | 0.37 | 0.00 | 78 | 1014.3 | |
| 20260901142217 | 83 | 0.0 | 0.0 | 0.00 | 0.37 | 0.00 | 79 | 1014.3 | |
| 20260901141217 | 82 | 0.0 | 0.0 | 0.00 | 0.37 | 0.00 | 81 | 1014.2 | |
| 20260901140217 | 81 | 0.0 | 0.0 | 0.00 | 0.37 | 0.00 | 82 | 1014.2 | |
| 20260901135217 | 80 | 0.0 | 0.0 | 0.00 | 0.39 | 0.00 | 84 | 1014.2 | |
| 20260901134236 | 79 | 0.0 | 0.0 | 0.00 | 0.39 | 0.00 | 86 | 1014.2 | |
| 20260901133217 | 78 | 0.0 | 0.0 | 0.00 | 0.39 | 0.00 | 87 | 1014.1 | |
| 20260901132217 | 78 | 0.0 | 0.0 | 0.00 | 0.39 | 0.00 | 88 | 1014.3 | |
| 20260901131237 | 77 | 0.0 | 0.0 | 0.00 | 0.39 | 0.00 | 89 | 1014.2 | |
| 20260901130216 | 77 | 0.0 | 0.0 | 0.00 | 0.39 | 0.00 | 90 | 1014.3 | |
| 20260901125217 | 76 | 0.0 | 0.0 | 0.00 | 0.46 | 0.00 | 90 | 1014.3 | |
| 20260901124217 | 76 | 0.0 | 0.0 | 0.00 | 0.46 | 0.00 | 90 | 1014.4 | |
| 20260901123216 | 76 | 0.0 | 0.0 | 0.00 | 0.46 | 0.00 | 90 | 1014.2 | |
| 20260901122216 | 75 | 0.0 | 0.0 | 0.00 | 0.46 | 0.00 | 91 | 1014.1 | |
| 20260901121217 | 75 | 0.0 | 0.0 | 0.00 | 0.46 | 0.00 | 91 | 1014.1 | |
| 20260901120216 | 75 | 0.0 | 0.0 | 0.00 | 0.46 | 0.00 | 90 | 1014.0 | |
| 20260901115216 | 75 | 0.0 | 0.0 | 0.00 | 0.46 | 0.00 | 90 | 1013.9 | |
| 20260901114216 | 75 | 0.0 | 0.0 | 0.00 | 0.46 | 0.00 | 90 | 1013.7 | |
| 20260901113216 | 75 | 0.0 | 0.0 | 0.00 | 0.46 | 0.00 | 90 | 1013.7 | |
| 20260901112216 | 75 | 0.0 | 0.0 | 0.00 | 0.46 | 0.00 | 90 | 1013.7 | |
| 20260901111216 | 75 | 0.0 | 0.0 | 0.00 | 0.46 | 0.00 | 90 | 1013.4 | |
| 20260901110216 | 75 | 0.0 | 0.0 | 0.00 | 0.46 | 0.00 | 90 | 1013.4 | |
| 20260901105216 | 75 | 0.0 | 0.0 | 0.00 | 0.46 | 0.00 | 89 | 1013.3 | |
| 20260901104216 | 75 | 0.0 | 0.0 | 0.00 | 0.46 | 0.00 | 89 | 1013.2 | |
| 20260901103236 | 75 | 0.0 | 0.0 | 0.00 | 0.46 | 0.00 | 89 | 1013.3 | |
| 20260901102216 | 75 | 0.0 | 0.0 | 0.00 | 0.46 | 0.00 | 89 | 1013.3 | |
| 20260901101216 | 75 | 0.0 | 0.0 | 0.00 | 0.46 | 0.00 | 89 | 1013.3 | |
| 20260901100216 | 75 | 0.0 | 0.0 | 0.00 | 0.46 | 0.00 | 89 | 1013.3 | |
| 20260901095216 | 75 | 0.0 | 0.0 | 0.00 | 0.46 | 0.00 | 88 | 1013.3 | |
| 20260901094237 | 75 | 0.0 | 0.0 | 0.00 | 0.46 | 0.00 | 88 | 1013.2 | |
| 20260901093216 | 75 | 0.0 | 0.0 | 0.00 | 0.46 | 0.00 | 88 | 1013.2 | |
| 20260901092216 | 76 | 0.0 | 0.0 | 0.00 | 0.46 | 0.00 | 88 | 1013.2 | |
| 20260901091256 | 76 | 0.0 | 0.0 | 0.00 | 0.46 | 0.00 | 88 | 1013.3 | |
| 20260901090216 | 76 | 0.0 | 0.0 | 0.00 | 0.46 | 0.00 | 88 | 1013.0 | |
| 20260901085236 | 76 | 0.0 | 0.0 | 0.00 | 0.46 | 0.00 | 88 | 1013.0 | |
| 20260901084216 | 76 | 0.0 | 0.0 | 0.00 | 0.46 | 0.00 | 87 | 1013.0 | |
| 20260901083216 | 76 | 0.0 | 0.0 | 0.00 | 0.46 | 0.00 | 87 | 1012.8 | |
| 20260901082216 | 76 | 0.0 | 0.0 | 0.00 | 0.46 | 0.00 | 88 | 1012.9 | |
| 20260901081236 | 76 | 0.0 | 0.0 | 0.00 | 0.46 | 0.00 | 88 | 1012.9 | |
| 20260901080216 | 76 | 0.0 | 0.0 | 0.00 | 0.46 | 0.00 | 88 | 1012.9 | |
| 20260901075216 | 76 | 0.0 | 0.0 | 0.00 | 0.46 | 0.00 | 88 | 1012.9 | |
| 20260901074216 | 76 | 0.0 | 0.0 | 0.00 | 0.46 | 0.00 | 89 | 1012.9 | |
| 20260901073216 | 76 | 0.0 | 0.0 | 0.00 | 0.46 | 0.00 | 89 | 1012.9 | |
| 20260901072216 | 76 | 0.0 | 0.0 | 0.00 | 0.46 | 0.00 | 90 | 1012.8 | |
| 20260901071216 | 76 | 0.0 | 0.0 | 0.00 | 0.46 | 0.00 | 90 | 1012.7 | |
| 20260901070216 | 75 | 0.0 | 0.0 | 0.00 | 0.46 | 0.00 | 90 | 1012.8 | |
| 20260901065216 | 75 | 0.0 | 0.0 | 0.00 | 0.46 | 0.00 | 90 | 1012.8 | |
| 20260901064216 | 75 | 0.0 | 0.0 | 0.00 | 0.46 | 0.00 | 90 | 1012.8 | |
| 20260901063216 | 75 | 0.0 | 0.0 | 0.00 | 0.46 | 0.00 | 90 | 1012.9 | |
| 20260901062216 | 75 | 0.0 | 0.0 | 0.00 | 0.46 | 0.00 | 90 | 1012.8 | |
| 20260901061216 | 75 | 0.0 | 0.0 | 0.00 | 0.46 | 0.00 | 90 | 1012.8 | |
| 20260901060216 | 75 | 0.0 | 0.0 | 0.00 | 0.46 | 0.00 | 89 | 1012.7 | |
| 20260901055216 | 75 | 0.0 | 0.0 | 0.00 | 0.46 | 0.00 | 89 | 1012.7 | |
| 20260901054216 | 75 | 0.0 | 0.0 | 0.00 | 0.46 | 0.00 | 88 | 1012.8 | |
| 20260901053216 | 75 | 0.0 | 0.0 | 0.00 | 0.46 | 0.00 | 88 | 1012.7 | |
| 20260901052216 | 75 | 0.0 | 0.0 | 0.00 | 0.46 | 0.00 | 88 | 1012.7 | |
| 20260901051216 | 76 | 0.0 | 0.0 | 0.00 | 0.46 | 0.00 | 88 | 1012.7 | |
| 20260901050216 | 76 | 0.0 | 0.0 | 0.00 | 0.46 | 0.00 | 88 | 1012.7 | |
| 20260901045216 | 76 | 0.0 | 0.0 | 0.00 | 0.46 | 0.46 | 88 | 1012.7 | |
| 20260901044216 | 76 | 0.0 | 0.0 | 0.00 | 0.46 | 0.46 | 88 | 1012.7 | |
| 20260901043217 | 77 | 0.0 | 0.0 | 0.00 | 0.46 | 0.46 | 88 | 1012.7 | |
| 20260901042237 | 77 | 0.0 | 0.0 | 0.00 | 0.46 | 0.46 | 88 | 1012.7 | |
| 20260901041216 | 77 | 0.0 | 0.0 | 0.00 | 0.46 | 0.46 | 87 | 1012.7 | |
| 20260901040216 | 77 | 0.0 | 0.0 | 0.00 | 0.46 | 0.46 | 87 | 1012.8 | |
| 20260901035216 | 77 | 0.0 | 0.0 | 0.00 | 0.48 | 0.46 | 87 | 1012.8 | |
| 20260901034217 | 77 | 0.0 | 0.0 | 0.00 | 0.48 | 0.46 | 86 | 1012.8 | |
| 20260901033216 | 78 | 0.0 | 0.0 | 0.00 | 0.48 | 0.46 | 86 | 1012.9 | |
| 20260901032217 | 78 | 0.0 | 0.0 | 0.00 | 0.48 | 0.46 | 86 | 1013.0 | |
| 20260901031216 | 78 | 0.0 | 0.0 | 0.00 | 0.48 | 0.46 | 86 | 1012.9 | |
| 20260901030216 | 78 | 0.0 | 0.0 | 0.00 | 0.48 | 0.46 | 86 | 1012.7 | |
| 20260901025216 | 78 | 0.0 | 0.0 | 0.00 | 0.49 | 0.46 | 86 | 1012.7 | |
| 20260901024216 | 78 | 0.0 | 0.0 | 0.00 | 0.49 | 0.46 | 86 | 1012.8 | |
| 20260901023216 | 78 | 0.0 | 0.0 | 0.00 | 0.49 | 0.46 | 86 | 1012.7 | |
| 20260901022216 | 78 | 0.0 | 0.0 | 0.00 | 0.49 | 0.46 | 86 | 1013.2 | |
| 20260901021216 | 78 | 0.0 | 0.0 | 0.00 | 0.49 | 0.46 | 86 | 1013.3 | |
| 20260901020216 | 78 | 0.0 | 0.0 | 0.00 | 0.49 | 0.46 | 85 | 1013.1 | |
| 20260901015216 | 78 | 0.0 | 0.0 | 0.00 | 0.49 | 0.46 | 85 | 1013.0 | |
| 20260901014216 | 78 | 0.0 | 0.0 | 0.00 | 0.49 | 0.46 | 86 | 1012.9 | |
| 20260901013216 | 78 | 0.0 | 0.0 | 0.00 | 0.49 | 0.46 | 86 | 1012.8 | |
| 20260901012236 | 78 | 0.0 | 0.0 | 0.00 | 0.49 | 0.46 | 86 | 1012.6 | |
| 20260901011216 | 78 | 0.0 | 0.0 | 0.00 | 0.49 | 0.46 | 86 | 1012.4 | |
| 20260901010236 | 78 | 0.0 | 0.0 | 0.00 | 0.49 | 0.46 | 86 | 1012.3 | |
| 20260901005216 | 79 | 0.0 | 0.0 | 0.00 | 0.49 | 0.46 | 86 | 1012.4 | |
| 20260901004216 | 79 | 0.0 | 0.0 | 0.00 | 0.49 | 0.46 | 86 | 1012.6 | |
| 20260901003216 | 80 | 0.0 | 0.0 | 0.00 | 0.49 | 0.46 | 86 | 1012.8 | |
| 20260901002216 | 80 | 0.0 | 0.0 | 0.00 | 0.49 | 0.46 | 86 | 1012.7 | |
| 20260901001216 | 80 | 0.0 | 0.0 | 0.00 | 0.49 | 0.46 | 86 | 1012.7 | |
| 20260901000218 | 80 | 0.0 | 0.0 | 0.00 | 0.49 | 0.46 | 86 | 1012.5 | |
| 20260831235216 | 80 | 0.0 | 0.0 | 0.00 | 0.50 | 0.46 | 85 | 1012.1 | |
| 20260831234216 | 80 | 0.0 | 0.0 | 0.00 | 0.50 | 0.46 | 85 | 1011.7 | |
| 20260831233216 | 81 | 0.0 | 0.0 | 0.00 | 0.50 | 0.46 | 84 | 1012.0 | |
| 20260831232216 | 81 | 0.0 | 0.0 | 0.01 | 0.50 | 0.46 | 83 | 1012.6 | |
| 20260831231216 | 81 | 0 | 2.0 | 0.0 | 0.01 | 0.50 | 0.46 | 83 | 1012.9 |
| 20260831230216 | 81 | 203 | 3.0 | 4.0 | 0.03 | 0.50 | 0.46 | 84 | 1012.5 |
| 20260831225216 | 82 | 0 | 3.0 | 5.0 | 0.13 | 0.51 | 0.46 | 86 | 1012.5 |
| 20260831224216 | 81 | 0 | 2.0 | 4.0 | 0.15 | 0.51 | 0.46 | 86 | 1012.2 |
| 20260831223336 | 81 | 135 | 2.0 | 3.0 | 0.23 | 0.51 | 0.46 | 85 | 1012.0 |
| 20260831222216 | 81 | 0.0 | 0.0 | 0.22 | 0.50 | 0.45 | 84 | 1012.4 | |
| 20260831221216 | 82 | 225 | 1.0 | 3.0 | 0.22 | 0.50 | 0.45 | 82 | 1012.4 |
| 20260831220216 | 83 | 0 | 2.0 | 4.0 | 0.20 | 0.48 | 0.43 | 80 | 1012.3 |
| 20260831215236 | 84 | 0.0 | 1.0 | 0.10 | 0.39 | 0.33 | 77 | 1012.3 | |
| 20260831214216 | 85 | 0 | 2.0 | 4.0 | 0.08 | 0.37 | 0.31 | 73 | 1012.1 |